Regional Weather Roundup
Issued by NWS Mt. Holly, NJ

Home | Current Version | Previous Version | Text Only | Print | Product List | Glossary On
Versions: 1 2 3 4 5 6 7 8 9 10 11 12 13 14 15 16 17 18 19 20 21 22 23 24 25 26 27
000
ASUS41 KPHI 222213
RWRPHI

REGIONAL WEATHER ROUNDUP
NATIONAL WEATHER SERVICE MOUNT HOLLY NJ
600 PM EDT SUN APR 22 2018

NOTE:  "FAIR" INDICATES FEW OR NO CLOUDS BELOW 12,000 FEET WITH NO
SIGNIFICANT WEATHER AND/OR OBSTRUCTIONS TO VISIBILITY.

 * = STATION DOES NOT REPORT PRECIPITATION (E.G. RAIN, SNOW, ETC.)
        OR FOG.

NJZ015>026-222300-
SOUTHERN NEW JERSEY

CITY           SKY/WX    TMP DP  RH WIND       PRES   REMARKS
POMONA         FAIR      55  28  35 S12       30.37S
WILDWOOD*      FAIR      55  33  43 S12       30.38F
MILLVILLE      FAIR      57  29  34 VRB5      30.36R
WRIGHTSTOWN    FAIR      65  19  17 CALM      30.31S
MOUNT HOLLY    FAIR      65  25  22 N7        30.33F
TRENTON        FAIR      64  23  21 SW5       30.32F

$$
NJZ001>014-222300-
NORTHERN NEW JERSEY

CITY           SKY/WX    TMP DP  RH WIND       PRES   REMARKS
SUSSEX         FAIR      65  17  15 NW8       30.31F
ANDOVER*         N/A     65  13  13 CALM      30.31S
MORRISTOWN     MOSUNNY   66  16  14 NW5       30.31S
NEWARK         FAIR      61  33  35 SE12      30.31S
TETERBORO      FAIR      62  22  21 W8        30.31R
CALDWELL       FAIR      66  13  12 VRB6      30.31S
SOMERVILLE     FAIR      66  18  15 VRB3      30.29S
ALLAIRE*       FAIR      55  23  28 S14       30.36F
TOMS RIVER*    FAIR      58  26  29 S13       30.36S

$$
PAZ043-044-047-054-055-060>062-066>071-222300-
EASTERN PENNSYLVANIA

CITY           SKY/WX    TMP DP  RH WIND       PRES   REMARKS
PHILADELPHIA   FAIR      65  22  19 SW7       30.34S
NORTH PHILA    FAIR      67  23  19 NW7       30.34F
BLUE BELL*     FAIR      63  27  25 NW5       30.34F
DOYLESTOWN     FAIR      64  20  18 SW6       30.32S
QUAKERTOWN*    SUNNY     64  23  20 CALM      30.32F
PERKASIE*      FAIR      63  19  19 SW7       30.33F
POTTSTOWN      FAIR      64  23  21 W5        30.34S
LANCASTER      FAIR      63  27  25 CALM      30.33F
COATESVILLE    FAIR      63  25  23 W7        30.35S
READING        FAIR      65  22  19 CALM      30.32S
ALLENTOWN      FAIR      66  14  13 NW5       30.32S
MOUNT POCONO   FAIR      58  14  17 W9G21     30.32S
HAZLETON       FAIR      63  12  14 N3        30.35S
LEHIGHTON      FAIR      64  10  12 CALM      30.32S
WILKES BARRE   FAIR      63  17  17 N13       30.32S

$$
DEZALL-MDZ008-012-015-019-020-222300-
DELAWARE AND EASTERN MARYLAND

CITY           SKY/WX    TMP DP  RH WIND       PRES   REMARKS
WILMINGTON     FAIR      63  29  27 S10       30.34F
DOVER          PTSUNNY   60  31  34 SE6       30.36S
GEORGETOWN     FAIR      58  31  35 SE9       30.38S
EASTON         MOSUNNY   64  34  32 SW9       30.38S
ABERDEEN       FAIR      64  30  27 SE3       30.35S
PATUXENT       CLOUDY    59  39  47 SE12      30.35
OCEAN CITY     FAIR      50  39  66 VRB5      30.40S
WALLOPS ISLAND FAIR      55  45  68 SE9       30.39F
CAMBRIDGE      SUNNY     59  37  44 S9G15     30.35F
SALISBURY      FAIR      55  37  50 SE9       30.37F

$$
PAZ001-021-NYZ056-072-MDZ011-DCZ001-222300-
OTHER NEARBY LOCATIONS

CITY           SKY/WX    TMP DP  RH WIND       PRES   REMARKS
HARRISBURG     FAIR      65  29  25 SE5       30.33S
STATE COLLEGE  SUNNY     63  23  22 CALM      30.31F
WILLIAMSPORT   FAIR      66  12  12 NE9       30.30S
BINGHAMTON     FAIR      56  16  20 N10       30.34S
NEW YORK CITY  FAIR      58  21  24 VRB7G18   30.35S
BALTIMORE      PTSUNNY   62  37  39 SE12      30.34R
WASHINGTON DC  PTSUNNY   63  38  39 SE14      30.33S

$$




USA.gov is the U.S. government's official web portal to all federal, state and local government web resources and services.